[[{"header":{"parameterUnit":"m.s-1","parameterCategory":1,"la1":30.2991,"la2":30.254,"lo1":-89.0895,"lo2":-89.0444,"dy":0.0017,"dx":0.0017,"nx":28,"ny":28,"refTime":"2024-03-25T21:00:00:Z","depth":0,"parameterNumber":2,"parameterNumberName":"U-component_of_WINDS"},"data":[0,0,0,0,0,0,0,0,0,0,0,0,0,0,0,0,0,0,0,0,0,0,0,0,0,0,0,0,0,0,0,0,0,0,0,0,0,0,0,0,0,0,0,0,0,0,0,0,0,0,0,0,0,0,0,0,0,0,-0.5673,-0.5672,0,-0.5587,-0.5586,-0.5586,-0.5542,-0.5542,-0.5541,-0.5541,-0.5454,-0.5452,-0.545,0,0,0,0,0,0,0,0,0,0,0,0,0,-0.58,-0.5797,-0.5673,-0.5672,-0.5671,-0.5588,-0.5586,-0.5585,-0.5542,-0.5542,-0.5541,-0.5541,-0.5455,-0.5452,-0.545,0,0,0,0,0,0,0,0,0,0,0,0,0,-0.5732,-0.5797,-0.5673,-0.5639,-0.5635,-0.5588,-0.5586,-0.5585,-0.5542,-0.5542,-0.5541,-0.5541,-0.5456,-0.5453,-0.5449,-0.543,0,0,-0.5439,-0.5437,0,0,0,0,0,0,0,0,-0.5736,-0.5728,-0.5645,-0.5641,-0.5637,-0.5575,-0.5599,-0.5533,-0.5542,-0.5577,-0.5541,-0.5541,-0.5495,-0.5488,-0.5472,-0.5426,-0.5422,-0.5439,-0.5436,-0.5435,-0.5434,0,0,0,0,0,0,0,-0.5741,-0.5731,-0.5639,-0.5644,-0.5639,-0.5628,-0.5619,-0.5586,-0.5537,-0.5574,-0.5571,-0.5561,-0.5492,-0.5476,-0.547,-0.5421,-0.5439,-0.5436,-0.5434,-0.5432,-0.5356,-0.5356,0,0,0,0,0,0,-0.5751,-0.5735,-0.5642,-0.5636,-0.5687,-0.5626,-0.5615,-0.5595,-0.5537,-0.5529,-0.5561,-0.5559,-0.5481,-0.5474,-0.5467,-0.5441,-0.5435,-0.5432,-0.543,-0.5356,-0.5356,-0.5356,0,0,0,0,0,0,-0.5754,-0.5743,-0.5645,-0.5685,-0.5672,-0.5624,-0.5601,-0.5593,-0.5576,-0.5528,-0.5519,-0.5553,-0.5481,-0.5471,-0.544,-0.5437,-0.543,-0.5427,-0.5356,-0.5356,-0.5356,-0.5389,0,0,0,0,0,0,-0.5758,-0.5744,-0.5736,-0.5685,-0.567,-0.5619,-0.5601,-0.5592,-0.5571,-0.5567,-0.5518,-0.551,-0.548,-0.5445,-0.5436,-0.5432,-0.5425,-0.5356,-0.5356,-0.5356,-0.5388,-0.539,-0.5392,0,0,0,0,0,-0.5762,-0.5748,-0.5736,-0.5725,-0.5658,-0.5619,-0.561,-0.5577,-0.5571,-0.5562,-0.5531,-0.5511,-0.5439,-0.5442,-0.5432,-0.5427,-0.5356,-0.5356,-0.5356,-0.5387,-0.539,-0.5392,0,0,0,0,0,0,-0.5799,-0.5741,-0.5726,-0.5695,-0.5663,-0.5612,-0.56,-0.5581,-0.5549,-0.5547,-0.5507,-0.5496,-0.5469,-0.5445,-0.5449,-0.5406,-0.5395,-0.5393,-0.5423,-0.5425,-0.5427,-0.5433,-0.5422,0,0,0,0,0,-0.5804,-0.5777,-0.5727,-0.5705,-0.5689,-0.5648,-0.5629,-0.5607,-0.5571,-0.5557,-0.5524,-0.549,-0.546,-0.5441,-0.5411,-0.5384,-0.5374,-0.5376,-0.5378,-0.538,-0.5379,-0.5365,-0.5366,-0.5356,-0.5356,-0.5356,0,0,-0.5813,-0.5778,-0.5763,-0.5712,-0.5683,-0.5657,-0.5636,-0.5608,-0.5589,-0.5553,-0.5521,-0.5496,-0.5456,-0.5427,-0.5413,-0.5406,-0.538,-0.538,-0.5382,-0.538,-0.5365,-0.5366,-0.5367,-0.5356,-0.5356,-0.5356,0,0,-0.5816,-0.5787,-0.5765,-0.5738,-0.5696,-0.5669,-0.5664,-0.5616,-0.5598,-0.5566,-0.5539,-0.5515,-0.5464,-0.5437,-0.5417,-0.5412,-0.5393,-0.5404,-0.5414,-0.5401,-0.5402,-0.5403,-0.5402,-0.5402,-0.5403,-0.5403,-0.5403,0,-0.5833,-0.5791,-0.5757,-0.5731,-0.571,-0.5677,-0.5655,-0.5631,-0.5581,-0.5567,-0.5561,-0.5497,-0.5468,-0.5433,-0.5432,-0.5417,-0.5411,-0.5409,-0.5405,-0.5405,-0.5405,-0.5404,-0.5404,-0.5404,-0.5404,-0.5404,-0.5404,0,-0.5814,-0.5786,-0.5774,-0.5728,-0.5705,-0.5682,-0.5644,-0.5626,-0.5606,-0.558,-0.5548,-0.5512,-0.5475,-0.5465,-0.5444,-0.5428,-0.5425,-0.5412,-0.5401,-0.5408,-0.5407,-0.5406,-0.5407,-0.5406,-0.5405,-0.5405,0,0,-0.5837,-0.5773,-0.5769,-0.5748,-0.5701,-0.5679,-0.5655,-0.5618,-0.5604,-0.5571,-0.5551,-0.5509,-0.5498,-0.5475,-0.5452,-0.544,-0.5441,-0.5428,-0.5427,-0.5433,-0.5422,-0.5432,-0.5432,-0.5428,-0.5427,-0.5427,-0.5425,0,-0.5833,-0.5788,-0.5757,-0.5725,-0.5699,-0.5669,-0.5648,-0.5617,-0.5593,-0.5568,-0.5541,-0.5513,-0.5499,-0.5485,-0.5472,-0.5443,-0.5438,-0.5443,-0.5409,-0.5408,-0.542,-0.5431,-0.5441,-0.5441,-0.5424,-0.5424,-0.5424,0,-0.5823,-0.5792,-0.5757,-0.5714,-0.5702,-0.5684,-0.565,-0.5626,-0.5591,-0.5574,-0.555,-0.5527,-0.5501,-0.5493,-0.5458,-0.5462,-0.5447,-0.5431,-0.543,-0.5425,-0.5417,-0.5427,-0.544,-0.544,-0.5423,-0.5423,-0.5423,0,-0.5844,-0.5794,-0.5767,-0.575,-0.5699,-0.5687,-0.5665,-0.5631,-0.5611,-0.5581,-0.5569,-0.5536,-0.5518,-0.5494,-0.5463,-0.546,-0.5432,-0.542,-0.5418,-0.5419,-0.5413,-0.5414,-0.5424,-0.5403,-0.5403,-0.5403,-0.5403,0,-0.5843,-0.5823,-0.5776,-0.5759,-0.5736,-0.5702,-0.568,-0.5656,-0.5626,-0.5605,-0.5577,-0.5558,-0.5518,-0.5494,-0.547,-0.5446,-0.5438,-0.5424,-0.5418,-0.5427,-0.5429,-0.5416,-0.5415,-0.5403,-0.5403,-0.5403,-0.5403,0,-0.5862,-0.5829,-0.5798,-0.5753,-0.5741,-0.5727,-0.5689,-0.5672,-0.5647,-0.5621,-0.5613,-0.5573,-0.5544,-0.5511,-0.5471,-0.5455,-0.5433,-0.5424,-0.5445,-0.5441,-0.5441,-0.5442,-0.5443,-0.5442,-0.5422,-0.5422,-0.5423,0,-0.5863,-0.5848,-0.5802,-0.5786,-0.5765,-0.5739,-0.572,-0.5686,-0.5667,-0.5628,-0.5617,-0.5586,-0.5559,-0.5515,-0.5483,-0.5453,-0.5443,-0.5446,-0.5438,-0.5448,-0.5444,-0.5445,-0.5444,-0.5448,-0.5448,-0.5448,-0.5449,0,-0.587,-0.5856,-0.5829,-0.5797,-0.5775,-0.5748,-0.572,-0.5709,-0.567,-0.5651,-0.5621,-0.5601,-0.5561,-0.5531,-0.5497,-0.5476,-0.5456,-0.5451,-0.5449,-0.5458,-0.5472,-0.5465,-0.5451,-0.5451,-0.5451,-0.5451,-0.5451,-0.5451,-0.5881,-0.5866,-0.5832,-0.5804,-0.578,-0.5755,-0.5738,-0.5711,-0.5686,-0.5651,-0.5632,-0.5604,-0.5571,-0.5524,-0.5504,-0.5481,-0.5475,-0.5471,-0.5471,-0.5471,-0.5474,-0.5475,-0.5475,-0.5475,-0.5475,-0.5475,-0.5475,0,-0.5887,-0.5864,-0.5838,-0.5801,-0.5779,-0.5763,-0.5732,-0.5715,-0.569,-0.5662,-0.5637,-0.5604,-0.5576,-0.5543,-0.5513,-0.5501,-0.5492,-0.5495,-0.5495,-0.5491,-0.5481,-0.5486,-0.5503,-0.5503,-0.5503,-0.5503,-0.5503,-0.5503,-0.5887,-0.5862,-0.5844,-0.5807,-0.5784,-0.5756,-0.574,-0.5717,-0.5695,-0.5659,-0.5636,-0.5615,-0.5585,-0.5553,-0.5527,-0.5518,-0.5508,-0.5514,-0.5503,-0.5494,-0.5491,-0.5489,-0.5494,-0.5512,-0.5512,-0.5514,-0.5514,-0.5514]},{"header":{"parameterUnit":"m.s-1","parameterCategory":1,"la1":30.2991,"la2":30.254,"lo1":-89.0895,"lo2":-89.0444,"dy":0.0017,"dx":0.0017,"nx":28,"ny":28,"refTime":"2024-03-25T21:00:00:Z","depth":0,"parameterNumber":3,"parameterNumberName":"V-component_of_WINDS"},"data":[0,0,0,0,0,0,0,0,0,0,0,0,0,0,0,0,0,0,0,0,0,0,0,0,0,0,0,0,0,0,0,0,0,0,0,0,0,0,0,0,0,0,0,0,0,0,0,0,0,0,0,0,0,0,0,0,0,0,-0.5002,-0.5002,0,-0.501,-0.501,-0.501,-0.501,-0.5009,-0.5009,-0.5009,-0.5018,-0.5019,-0.5019,0,0,0,0,0,0,0,0,0,0,0,0,0,-0.4987,-0.4987,-0.5002,-0.5002,-0.5002,-0.501,-0.501,-0.501,-0.501,-0.5009,-0.5009,-0.5009,-0.5018,-0.5019,-0.5019,0,0,0,0,0,0,0,0,0,0,0,0,0,-0.4994,-0.4987,-0.5002,-0.5002,-0.5003,-0.501,-0.501,-0.501,-0.501,-0.5009,-0.5009,-0.5009,-0.5018,-0.5019,-0.5019,-0.5026,0,0,-0.5021,-0.5021,0,0,0,0,0,0,0,0,-0.4994,-0.4995,-0.5002,-0.5002,-0.5003,-0.5009,-0.5008,-0.5016,-0.501,-0.5007,-0.5009,-0.5009,-0.5015,-0.5016,-0.5018,-0.5027,-0.5027,-0.5021,-0.5021,-0.5021,-0.5022,0,0,0,0,0,0,0,-0.4993,-0.4994,-0.5005,-0.5002,-0.5003,-0.5003,-0.5004,-0.501,-0.5012,-0.5007,-0.5007,-0.5008,-0.5015,-0.5018,-0.5018,-0.5027,-0.5021,-0.5021,-0.5022,-0.5022,-0.5045,-0.5045,0,0,0,0,0,0,-0.4992,-0.4994,-0.5005,-0.5005,-0.4998,-0.5004,-0.5004,-0.5007,-0.5012,-0.5013,-0.5008,-0.5008,-0.5017,-0.5018,-0.5019,-0.5029,-0.5021,-0.5022,-0.5022,-0.5044,-0.5045,-0.5045,0,0,0,0,0,0,-0.4992,-0.4993,-0.5004,-0.5,-0.5001,-0.5004,-0.5007,-0.5007,-0.5009,-0.5013,-0.5013,-0.501,-0.5017,-0.5018,-0.5025,-0.5029,-0.5022,-0.5023,-0.5044,-0.5045,-0.5045,-0.5048,0,0,0,0,0,0,-0.4992,-0.4993,-0.4995,-0.5,-0.5001,-0.501,-0.5007,-0.5007,-0.501,-0.501,-0.5015,-0.5015,-0.5017,-0.5024,-0.5025,-0.503,-0.5023,-0.5044,-0.5044,-0.5045,-0.5048,-0.5049,-0.505,0,0,0,0,0,-0.4991,-0.4996,-0.4995,-0.4997,-0.5004,-0.501,-0.5011,-0.5012,-0.501,-0.5013,-0.5016,-0.5015,-0.5028,-0.5025,-0.5026,-0.5031,-0.5043,-0.5044,-0.5045,-0.5048,-0.5049,-0.505,0,0,0,0,0,0,-0.4991,-0.4996,-0.4996,-0.5002,-0.5006,-0.501,-0.5013,-0.5013,-0.5018,-0.5017,-0.5019,-0.502,-0.5028,-0.503,-0.5026,-0.5039,-0.5036,-0.5037,-0.5037,-0.5039,-0.5039,-0.5039,-0.5024,0,0,0,0,0,-0.4992,-0.4996,-0.5,-0.5005,-0.5007,-0.501,-0.5012,-0.5013,-0.5017,-0.5019,-0.5022,-0.5026,-0.5032,-0.5035,-0.504,-0.5048,-0.505,-0.5052,-0.5053,-0.5054,-0.5055,-0.5062,-0.5063,-0.5047,-0.5047,-0.5047,0,0,-0.4993,-0.4997,-0.4999,-0.5005,-0.5008,-0.5013,-0.5011,-0.5016,-0.502,-0.502,-0.5027,-0.503,-0.5035,-0.5043,-0.5047,-0.5045,-0.506,-0.5055,-0.5055,-0.5056,-0.5062,-0.5064,-0.5065,-0.5048,-0.5047,-0.5047,0,0,-0.4999,-0.5001,-0.5006,-0.501,-0.5015,-0.5017,-0.5018,-0.5023,-0.5025,-0.5032,-0.5033,-0.5038,-0.5047,-0.5051,-0.5054,-0.5064,-0.5064,-0.5065,-0.507,-0.5077,-0.5078,-0.5079,-0.5084,-0.5086,-0.5066,-0.5066,-0.5066,0,-0.5,-0.5007,-0.5009,-0.5015,-0.5018,-0.5018,-0.5025,-0.5028,-0.5034,-0.5037,-0.5035,-0.5048,-0.5051,-0.5061,-0.5064,-0.5066,-0.5069,-0.5065,-0.5078,-0.5079,-0.508,-0.5085,-0.5086,-0.5066,-0.5066,-0.5066,-0.5066,0,-0.501,-0.5015,-0.5018,-0.5025,-0.5029,-0.5035,-0.5038,-0.5042,-0.5043,-0.5046,-0.5055,-0.5059,-0.5066,-0.5068,-0.5069,-0.5079,-0.5079,-0.5077,-0.5074,-0.5082,-0.5086,-0.5088,-0.5067,-0.5067,-0.5067,-0.5067,0,0,-0.5014,-0.5023,-0.5024,-0.5029,-0.5035,-0.5039,-0.5046,-0.5053,-0.5057,-0.5062,-0.5069,-0.5077,-0.5077,-0.508,-0.5082,-0.5087,-0.5097,-0.5086,-0.5086,-0.5089,-0.5111,-0.5113,-0.5115,-0.5097,-0.5098,-0.5098,-0.5111,0,-0.5021,-0.5033,-0.5035,-0.5045,-0.5051,-0.5053,-0.5059,-0.5064,-0.5068,-0.5074,-0.5078,-0.5084,-0.5082,-0.5085,-0.509,-0.5095,-0.5102,-0.5094,-0.5105,-0.5105,-0.5104,-0.5117,-0.5119,-0.5131,-0.5113,-0.5113,-0.5113,0,-0.503,-0.5036,-0.5047,-0.5055,-0.5058,-0.5063,-0.5071,-0.5076,-0.5083,-0.5085,-0.5091,-0.5092,-0.5101,-0.5097,-0.511,-0.5104,-0.5109,-0.5112,-0.5113,-0.5115,-0.511,-0.5121,-0.5135,-0.5137,-0.5116,-0.5116,-0.5116,0,-0.5034,-0.5045,-0.5054,-0.5057,-0.5066,-0.507,-0.5074,-0.508,-0.5085,-0.5092,-0.5096,-0.5104,-0.5108,-0.5115,-0.5119,-0.5116,-0.5132,-0.5128,-0.5136,-0.5136,-0.5139,-0.5139,-0.5156,-0.5141,-0.5141,-0.5141,-0.5141,0,-0.5042,-0.5049,-0.5056,-0.5061,-0.507,-0.5074,-0.5082,-0.5086,-0.5093,-0.51,-0.5102,-0.5108,-0.5113,-0.5121,-0.5124,-0.5136,-0.5137,-0.514,-0.5141,-0.5141,-0.5141,-0.5144,-0.5144,-0.5141,-0.5141,-0.5141,-0.5141,0,-0.5048,-0.5052,-0.5062,-0.507,-0.5073,-0.5079,-0.5087,-0.5093,-0.5097,-0.5106,-0.5108,-0.5115,-0.5124,-0.5129,-0.5141,-0.5144,-0.5157,-0.5157,-0.5155,-0.5155,-0.5163,-0.5163,-0.5183,-0.5187,-0.5168,-0.5169,-0.5169,0,-0.5053,-0.5058,-0.5068,-0.5073,-0.5077,-0.5085,-0.509,-0.5095,-0.5101,-0.511,-0.5116,-0.5126,-0.5134,-0.5149,-0.5156,-0.5166,-0.5167,-0.5173,-0.5168,-0.5168,-0.5169,-0.5169,-0.517,-0.5174,-0.5174,-0.5175,-0.5175,0,-0.5062,-0.5064,-0.5072,-0.5081,-0.5087,-0.5095,-0.5102,-0.5106,-0.5112,-0.5119,-0.5129,-0.5135,-0.5149,-0.5159,-0.517,-0.5175,-0.5177,-0.5176,-0.5179,-0.5179,-0.5178,-0.518,-0.5159,-0.5176,-0.5176,-0.5176,-0.5176,-0.5176,-0.5068,-0.5074,-0.5082,-0.5091,-0.5098,-0.5105,-0.5112,-0.5117,-0.5126,-0.5137,-0.5139,-0.5151,-0.516,-0.5175,-0.518,-0.519,-0.5189,-0.5192,-0.5193,-0.5194,-0.5195,-0.5176,-0.5192,-0.5192,-0.5192,-0.5192,-0.5192,0,-0.5078,-0.5084,-0.5092,-0.5103,-0.5111,-0.5112,-0.5121,-0.5127,-0.5137,-0.5146,-0.5154,-0.5167,-0.5178,-0.5186,-0.5198,-0.5204,-0.5206,-0.5207,-0.5207,-0.5209,-0.5195,-0.5192,-0.5206,-0.5206,-0.5206,-0.5206,-0.5206,-0.5206,-0.5084,-0.5095,-0.5099,-0.5114,-0.512,-0.5132,-0.5137,-0.5144,-0.5151,-0.5166,-0.5175,-0.5181,-0.519,-0.5202,-0.5213,-0.5215,-0.522,-0.5222,-0.5224,-0.5211,-0.521,-0.5208,-0.5206,-0.5223,-0.5223,-0.5238,-0.5238,-0.5238]}]]